Wind_Speed
38 38 39 40 41 42 43 44 44 45 45 45 46 46 46 46 46 46 45 45 45 45 44 44 45 45 46 46 47 47 47 47 47 47 47 47 48 48 48 48 49 51 51
37 38 39 40 41 42 43 44 44 44 45 45 45 46 46 47 46 46 45 45 45 44 45 45 45 46 46 47 47 47 47 46 47 47 47 48 48 49 50 50 50 50 52
38 39 40 41 42 43 43 43 44 44 44 45 46 46 46 46 45 45 45 45 45 45 45 45 46 46 46 46 46 46 45 46 46 46 46 47 48 48 50 50 50 51 52
40 41 42 42 43 43 43 44 44 44 45 45 45 45 44 44 45 45 44 44 44 45 45 45 46 46 45 45 45 45 45 45 45 45 45 46 48 48 49 50 50 50 51
40 41 42 43 43 44 44 44 44 44 44 44 43 43 43 43 43 43 43 43 43 44 44 45 45 44 44 44 44 44 44 44 45 45 46 47 48 48 48 49 49 50 50
41 42 42 43 44 44 44 44 44 44 44 44 43 43 43 43 43 43 43 43 43 43 43 43 44 43 43 43 43 43 44 44 44 45 46 47 47 48 48 48 48 49 49
43 43 43 44 44 44 44 44 44 44 43 43 42 42 42 42 43 43 43 43 43 43 43 43 43 42 42 43 43 43 44 44 45 45 46 46 46 46 47 47 47 46 47
44 44 44 44 45 45 45 44 44 44 43 43 43 43 43 43 43 43 44 43 43 43 42 42 42 42 42 42 43 43 44 44 45 45 46 45 45 45 45 44 43 43 43
45 45 46 46 46 45 45 45 45 44 44 44 43 43 43 43 43 43 44 43 43 42 42 41 42 42 43 43 43 43 44 45 45 45 45 45 45 44 44 43 42 42 43
46 46 46 46 46 45 45 45 45 44 44 44 43 44 44 44 44 43 43 43 43 42 42 42 42 43 43 43 43 44 44 44 45 45 45 45 44 44 42 42 42 42 43
47 47 47 47 46 46 45 45 45 44 44 44 43 43 43 43 43 43 43 43 42 42 42 42 42 43 43 44 44 44 44 44 44 45 45 44 44 43 42 42 42 42 43
48 47 47 47 46 45 44 44 44 44 43 43 42 42 42 42 43 43 43 42 42 42 42 43 43 44 44 44 44 44 44 44 44 44 44 44 44 43 43 43 42 43 44
47 47 47 46 45 45 44 44 43 43 42 42 42 42 42 42 42 42 42 41 41 41 42 43 43 43 43 44 44 44 44 44 44 44 44 44 44 43 42 42 42 43 43
47 46 46 45 44 43 43 43 43 42 41 41 41 41 41 41 41 40 40 40 41 41 42 42 43 43 43 44 43 43 43 43 43 43 43 43 42 41 41 41 41 41 40
46 45 45 44 43 43 42 42 42 42 41 41 41 41 40 40 40 40 40 41 41 41 41 41 42 42 42 43 43 43 42 42 42 43 42 41 40 40 40 39 39 39 38
45 44 44 43 43 42 42 41 41 41 41 41 41 40 40 40 40 40 41 41 41 40 40 40 40 41 41 41 41 41 42 42 42 42 41 40 39 38 38 38 38 37 37
44 43 42 42 42 42 41 41 41 40 40 40 40 39 39 40 40 40 40 40 40 40 39 39 40 40 40 40 40 40 41 41 41 40 39 38 38 37 37 37 37 36 36
42 42 42 41 42 41 41 41 40 40 39 39 39 38 39 39 39 39 39 39 39 39 39 39 39 40 40 40 40 40 40 39 39 38 37 37 37 36 36 36 36 36 36
43 42 42 42 42 41 41 41 40 39 39 39 38 38 39 38 38 38 38 38 38 38 38 38 38 39 39 39 39 39 38 37 37 37 36 36 36 35 35 35 35 35 34
44 44 44 43 42 42 41 41 40 40 39 39 38 38 38 38 38 37 37 37 37 37 37 37 37 38 38 38 37 37 36 36 36 36 35 35 35 35 34 34 33 32 32
44 44 44 44 43 42 42 41 40 40 39 38 38 38 38 37 37 37 36 36 35 35 36 36 36 36 36 36 35 35 34 35 35 35 34 34 34 33 32 31 30 30 30
45 44 44 43 43 42 41 40 40 39 38 37 37 37 37 36 36 36 35 34 34 34 34 35 35 35 35 34 33 33 33 33 33 32 32 32 31 30 29 28 28 28 27
45 44 43 42 42 41 40 39 39 38 37 36 36 36 35 35 34 34 33 33 32 33 33 33 33 33 32 32 32 32 32 31 31 30 29 29 29 27 26 26 26 26 25
44 43 42 41 41 40 39 38 37 36 35 35 34 34 33 33 32 32 32 31 31 31 31 31 31 31 31 31 31 31 30 29 28 27 27 26 26 25 24 24 23 24 24
42 42 41 40 39 38 37 35 35 34 33 33 32 31 30 30 29 30 30 30 30 30 29 29 29 29 29 29 29 29 28 27 26 25 25 24 23 22 22 22 22 22 23
40 39 39 37 36 35 34 33 32 31 30 30 29 28 28 27 28 28 29 28 28 28 28 28 28 27 27 27 27 26 25 24 23 23 23 22 21 20 21 21 21 21 21
Wind_Direction
284 284 285 285 286 286 286 287 288 288 288 289 289 290 290 290 291 291 290 289 289 288 287 287 288 288 288 287 286 286 285 284 283 282 280 278 276 275 274 272 271 269 267
286 286 287 287 287 288 288 288 289 289 289 290 290 290 290 291 291 290 289 288 288 288 287 287 288 288 288 288 287 287 286 285 284 283 282 280 277 276 275 273 272 270 267
288 288 289 289 289 289 290 290 290 290 290 291 290 290 290 290 290 289 289 288 287 287 287 287 288 288 288 289 289 288 287 287 286 285 283 281 279 278 277 275 273 271 268
291 291 290 290 290 290 291 291 291 291 291 292 291 291 290 290 289 289 288 288 287 287 287 288 289 289 289 289 289 289 289 288 288 287 285 284 282 282 280 277 274 273 271
293 292 292 291 291 292 292 291 291 291 291 291 291 291 290 291 291 290 289 289 288 289 289 289 289 290 290 290 290 289 290 290 289 288 288 287 285 283 282 279 276 274 272
294 293 293 293 292 292 292 292 291 291 291 291 291 291 291 291 290 290 290 290 290 290 290 289 290 289 290 290 291 291 291 291 290 290 290 289 288 286 284 281 278 275 272
293 293 293 293 293 293 292 292 291 290 290 290 290 291 291 292 292 291 291 290 290 290 290 290 290 289 290 291 291 292 292 292 292 291 291 291 290 288 285 283 280 277 273
293 293 293 293 293 292 292 291 291 291 290 290 290 291 291 292 292 292 292 291 291 290 290 290 290 290 290 291 291 292 293 294 293 293 292 292 291 290 288 285 282 279 277
293 293 292 293 293 292 292 291 290 290 290 291 290 291 291 291 292 292 292 292 291 290 290 290 290 291 291 291 292 293 294 294 295 295 294 293 292 292 290 286 283 281 279
293 293 292 292 292 292 291 291 290 290 290 290 290 290 290 290 290 291 292 291 290 290 290 290 290 291 292 292 293 293 294 295 295 296 295 294 294 293 291 288 286 283 282
293 293 292 292 292 291 291 291 290 290 290 290 289 289 289 289 290 290 291 290 289 289 289 290 291 292 292 293 293 293 294 295 295 295 295 294 294 293 291 290 289 287 285
292 292 292 292 291 291 291 291 290 290 290 290 290 290 290 290 290 291 291 290 290 290 290 291 291 292 292 293 294 294 294 294 295 295 295 294 294 292 291 291 290 289 288
293 292 292 292 291 291 290 290 290 290 290 290 290 289 290 290 290 291 290 290 291 291 291 291 291 292 293 294 295 295 294 295 295 295 295 295 294 293 292 291 291 291 291
293 292 292 291 291 291 291 290 290 290 289 290 290 290 290 290 291 291 291 291 291 292 292 291 292 292 293 294 294 295 295 295 295 296 296 296 294 293 293 293 293 293 292
293 292 291 291 291 291 291 291 290 290 290 290 291 291 290 290 290 291 291 291 291 292 291 292 293 293 294 295 295 295 296 296 296 297 298 297 295 294 294 294 294 294 293
294 292 291 291 291 291 291 290 290 290 290 291 291 290 291 291 291 291 291 291 291 292 292 293 294 295 296 296 296 296 296 296 297 297 297 297 295 295 294 294 295 294 293
294 293 292 291 291 291 290 290 291 290 290 290 290 290 290 290 291 291 292 292 292 292 292 293 294 295 296 296 297 297 297 297 297 298 297 297 296 295 295 294 295 295 294
295 294 293 292 291 290 290 291 290 290 290 290 290 289 289 290 292 292 293 293 293 293 293 294 295 295 296 297 297 298 298 298 298 298 298 298 297 296 296 295 295 295 294
294 294 294 293 292 291 290 290 290 289 289 289 289 289 289 291 293 293 293 293 294 294 294 294 295 296 297 298 298 298 298 298 299 299 299 299 298 298 298 297 296 295 295
293 293 293 293 293 292 291 290 290 289 289 288 288 288 289 290 292 293 294 294 295 295 294 295 297 298 298 298 298 298 298 299 300 300 299 299 299 300 299 298 297 296 296
292 292 292 293 293 292 291 290 290 289 288 287 287 288 288 289 291 293 294 295 295 295 295 296 297 299 300 300 299 298 298 299 300 300 299 299 300 300 300 299 298 298 298
292 292 292 292 292 291 290 290 289 289 288 287 287 287 288 288 290 292 293 294 295 295 296 297 298 299 300 301 300 299 300 301 301 301 301 301 302 301 300 301 301 301 301
292 292 292 291 291 290 290 289 289 287 287 287 287 287 287 288 289 291 293 294 295 297 298 299 300 300 301 301 301 301 302 303 302 302 302 302 303 303 302 303 303 304 304
292 292 291 291 290 290 289 288 287 286 286 286 287 286 287 288 289 291 293 295 296 298 299 300 301 302 302 302 302 303 304 304 304 303 304 304 304 304 303 304 305 306 306
292 292 291 291 290 290 289 288 287 285 285 285 285 286 287 288 289 292 294 295 297 298 299 301 302 302 304 304 304 305 305 305 305 305 305 305 305 305 305 305 305 307 309
292 292 291 290 289 288 287 286 286 285 284 284 285 286 286 288 290 293 294 295 296 298 300 302 302 303 305 306 307 307 307 306 307 307 307 306 306 306 307 307 306 307 309
Height
5700 5698 5696 5694 5691 5689 5687 5684 5681 5678 5676 5673 5670 5667 5663 5660 5657 5654 5651 5648 5645 5642 5639 5636 5634 5631 5628 5625 5622 5619 5617 5615 5613 5611 5608 5607 5605 5604 5603 5602 5601 5601 5601
5691 5689 5686 5684 5681 5678 5676 5673 5670 5667 5664 5661 5658 5655 5651 5648 5645 5641 5638 5635 5633 5630 5627 5624 5621 5618 5615 5612 5609 5606 5603 5600 5599 5597 5594 5592 5590 5589 5588 5586 5585 5584 5585
5682 5679 5676 5673 5671 5668 5665 5662 5659 5656 5652 5649 5646 5643 5639 5636 5632 5629 5626 5623 5620 5617 5615 5612 5609 5605 5602 5599 5596 5593 5590 5587 5584 5582 5580 5577 5575 5574 5572 5571 5569 5568 5568
5672 5669 5666 5663 5660 5657 5654 5650 5647 5644 5641 5637 5634 5630 5627 5624 5620 5617 5614 5611 5608 5605 5602 5599 5596 5593 5589 5586 5583 5580 5577 5574 5571 5568 5566 5563 5561 5559 5557 5555 5554 5552 5552
5662 5659 5655 5652 5648 5645 5642 5639 5636 5632 5629 5625 5622 5618 5615 5612 5608 5605 5602 5599 5596 5593 5589 5586 5583 5580 5577 5574 5571 5567 5564 5561 5558 5555 5552 5549 5546 5544 5542 5539 5538 5537 5536
5651 5648 5644 5641 5637 5634 5630 5627 5624 5620 5617 5613 5610 5607 5603 5600 5596 5593 5590 5587 5584 5581 5577 5574 5571 5568 5565 5561 5558 5555 5552 5548 5545 5542 5539 5535 5532 5529 5526 5524 5522 5522 5521
5640 5637 5633 5629 5626 5622 5619 5615 5612 5608 5604 5601 5598 5595 5591 5588 5585 5581 5578 5575 5572 5569 5565 5562 5559 5556 5552 5549 5546 5542 5539 5535 5532 5529 5525 5521 5518 5514 5512 5509 5507 5505 5504
5629 5625 5621 5617 5614 5610 5606 5603 5599 5596 5593 5589 5586 5583 5579 5576 5573 5569 5566 5563 5560 5557 5553 5550 5547 5544 5540 5537 5534 5530 5526 5522 5519 5515 5512 5507 5503 5499 5496 5494 5492 5491 5490
5616 5612 5608 5605 5601 5597 5594 5590 5587 5584 5580 5577 5574 5570 5567 5564 5561 5557 5554 5551 5548 5545 5541 5538 5535 5532 5528 5525 5522 5518 5514 5510 5506 5502 5498 5494 5490 5486 5483 5481 5478 5477 5476
5603 5599 5595 5592 5588 5585 5581 5578 5574 5571 5568 5565 5561 5558 5555 5552 5548 5545 5542 5539 5536 5533 5530 5526 5523 5520 5516 5513 5509 5506 5502 5498 5494 5489 5485 5481 5477 5473 5470 5467 5465 5463 5461
5590 5587 5583 5579 5575 5572 5568 5565 5561 5558 5555 5552 5549 5546 5543 5539 5536 5533 5529 5526 5523 5521 5517 5514 5511 5508 5504 5500 5497 5493 5489 5485 5481 5477 5473 5469 5465 5461 5457 5454 5451 5448 5446
5577 5573 5569 5566 5562 5558 5555 5552 5549 5545 5542 5540 5536 5534 5530 5527 5524 5520 5517 5514 5511 5508 5505 5502 5499 5495 5492 5488 5484 5480 5476 5473 5469 5465 5461 5456 5452 5449 5445 5441 5438 5435 5432
5564 5560 5556 5553 5549 5546 5543 5539 5536 5533 5530 5527 5524 5521 5518 5515 5512 5508 5505 5502 5499 5496 5493 5490 5486 5483 5479 5475 5471 5467 5464 5460 5456 5452 5448 5444 5440 5436 5432 5428 5425 5421 5418
5550 5547 5543 5540 5537 5533 5530 5527 5524 5521 5518 5515 5512 5509 5506 5503 5500 5496 5493 5490 5487 5484 5481 5477 5474 5470 5467 5463 5459 5455 5451 5447 5443 5439 5435 5431 5427 5423 5419 5415 5412 5409 5405
5537 5533 5530 5527 5524 5521 5518 5514 5511 5508 5505 5503 5500 5497 5494 5491 5488 5485 5482 5479 5475 5472 5469 5465 5462 5458 5454 5451 5447 5443 5439 5435 5431 5427 5423 5419 5414 5411 5407 5403 5400 5396 5393
5523 5520 5517 5514 5511 5508 5505 5503 5499 5496 5493 5490 5487 5485 5482 5479 5476 5473 5470 5467 5463 5460 5457 5454 5450 5446 5443 5439 5435 5431 5427 5423 5419 5415 5411 5406 5403 5399 5395 5391 5388 5384 5381
5510 5507 5504 5501 5498 5495 5493 5490 5487 5485 5481 5478 5475 5472 5470 5467 5464 5461 5458 5454 5451 5448 5445 5442 5438 5435 5431 5427 5423 5419 5415 5411 5407 5403 5399 5395 5391 5387 5384 5380 5376 5373 5369
5498 5494 5491 5489 5486 5483 5480 5477 5474 5472 5470 5466 5463 5461 5458 5455 5452 5449 5446 5443 5440 5436 5433 5430 5427 5423 5419 5415 5411 5407 5403 5399 5395 5391 5387 5383 5379 5376 5372 5368 5365 5361 5358
5485 5482 5479 5476 5473 5470 5467 5465 5462 5459 5457 5455 5452 5449 5446 5444 5441 5438 5434 5431 5428 5425 5422 5418 5415 5411 5408 5404 5400 5396 5392 5388 5384 5380 5376 5372 5368 5364 5361 5357 5353 5349 5346
5472 5469 5466 5463 5460 5458 5455 5452 5450 5447 5445 5443 5441 5438 5435 5432 5430 5427 5423 5420 5417 5414 5411 5407 5404 5400 5396 5392 5388 5384 5381 5377 5373 5369 5365 5361 5357 5354 5350 5346 5342 5339 5335
5459 5456 5453 5450 5447 5444 5442 5439 5437 5434 5432 5430 5428 5426 5423 5421 5418 5415 5412 5409 5406 5403 5400 5397 5393 5389 5385 5381 5377 5374 5370 5366 5362 5358 5354 5351 5347 5343 5339 5336 5332 5329 5325
5445 5442 5439 5437 5434 5431 5429 5427 5424 5422 5420 5418 5416 5414 5411 5409 5407 5404 5402 5399 5396 5393 5390 5386 5383 5379 5375 5371 5367 5364 5360 5356 5352 5348 5344 5341 5337 5333 5330 5327 5323 5320 5317
5432 5429 5426 5423 5420 5418 5416 5414 5412 5410 5408 5406 5404 5402 5400 5398 5396 5394 5391 5389 5386 5383 5380 5376 5373 5369 5365 5361 5358 5354 5350 5347 5343 5339 5335 5332 5328 5325 5322 5319 5315 5312 5309
5418 5415 5412 5410 5407 5405 5403 5401 5399 5397 5396 5394 5393 5391 5389 5388 5386 5384 5381 5379 5376 5373 5370 5367 5363 5360 5356 5352 5349 5345 5341 5338 5334 5331 5327 5324 5321 5317 5315 5312 5308 5305 5302
5404 5402 5399 5397 5395 5393 5391 5389 5387 5386 5384 5383 5382 5380 5379 5378 5376 5374 5372 5370 5367 5364 5361 5358 5354 5351 5348 5344 5340 5336 5333 5330 5326 5323 5320 5317 5314 5311 5308 5305 5302 5299 5296
5391 5389 5386 5384 5382 5380 5379 5378 5376 5375 5374 5373 5372 5371 5369 5368 5367 5365 5363 5360 5358 5355 5352 5349 5346 5343 5340 5336 5332 5329 5326 5322 5319 5316 5313 5311 5308 5305 5302 5300 5297 5294 5291